{"data":{"norad_id":48980,"intl_designator":"2021-060P","name":"ONEWEB-0262","alt_names":[],"object_type":"PAYLOAD","status":"ACTIVE","operator":null,"country":"UK","launch_date":"2021-07-01","launch_site_code":"VOSTO","launch_vehicle":null,"mission":null,"orbit_class":"UNKNOWN","rcs_meters":null,"size_class":null,"mass_kg":null,"dimensions":null,"purposes":["comms"],"wikipedia_slug":null,"has_3d_model":false,"image_url":null,"decayed_at":null,"tle_current":{"epoch":"2026-05-24T15:10:36.567552Z","epoch_age_seconds":103321,"freshness":"FRESH","line1":"1 48980U 21060P   26144.63236768  .00000086  00000+0  19232-3 0  9999","line2":"2 48980  87.9107 233.4467 0001751 105.5055 254.6269 13.16593503236525","mean_motion":13.16593503,"eccentricity":0.0001751,"inclination_deg":87.9107,"raan_deg":233.4467,"arg_perigee_deg":105.5055,"mean_anomaly_deg":254.6269,"bstar":0.00019232,"rev_number":23652,"period_min":109.3731661837,"perigee_km":1196.433020032,"apogee_km":1199.0860990071,"semimajor_km":7575.8965595195,"source":"CELESTRAK","updated_at":"2026-05-25T13:38:22.472658Z"}}}